| time (UTC) | temp C | wind direction | speed KPH | gust KPH | rain 1hr cm | rain 24hr cm | rain mn cm | humidity % | barometer mb |
| 20260505070019 | 18 | 168 | 0.0 | 1.6 | 0.00 | 0.00 | 0.00 | 59 | 1001.6 |
| 20260505064513 | 18 | 184 | 1.6 | 12.9 | 0.00 | 0.00 | 0.00 | 59 | 1001.7 |
| 20260505063013 | 18 | 174 | 3.2 | 20.9 | 0.00 | 0.00 | 0.00 | 58 | 1001.5 |
| 20260505061516 | 18 | 160 | 6.4 | 16.1 | 0.00 | 0.00 | 0.00 | 58 | 1001.5 |
| 20260505060016 | 18 | 183 | 1.6 | 20.9 | 0.00 | 0.00 | 0.00 | 58 | 1001.6 |
| 20260505054511 | 18 | 173 | 3.2 | 19.3 | 0.00 | 0.00 | 0.00 | 58 | 1001.4 |
| 20260505053015 | 18 | 174 | 1.6 | 12.9 | 0.00 | 0.00 | 0.00 | 58 | 1001.1 |
| 20260505051506 | 19 | 166 | 0.0 | 14.5 | 0.00 | 0.00 | 0.00 | 57 | 1000.9 |
| 20260505041610 | 19 | 153 | 0.0 | 0.0 | 0.00 | 0.00 | 0.00 | 58 | 1001.2 |
| 20260505040100 | 18 | 154 | 0.0 | 14.5 | 0.00 | 0.00 | 0.00 | 60 | 1001.6 |
| 20260505034555 | 18 | 160 | 0.0 | 6.4 | 0.00 | 0.00 | 0.00 | 61 | 1001.8 |
| 20260505033055 | 18 | 165 | 0.0 | 0.0 | 0.00 | 0.00 | 0.00 | 62 | 1001.9 |
| 20260505031556 | 18 | 163 | 1.6 | 9.7 | 0.00 | 0.00 | 0.00 | 62 | 1001.8 |
| 20260505030054 | 18 | 158 | 0.0 | 0.0 | 0.00 | 0.00 | 0.00 | 61 | 1001.6 |
| 20260505024553 | 18 | 158 | 0.0 | 0.0 | 0.00 | 0.00 | 0.00 | 60 | 1001.7 |
| 20260505023054 | 19 | 158 | 0.0 | 3.2 | 0.00 | 0.00 | 0.00 | 59 | 1001.4 |
| 20260505021553 | 19 | 160 | 0.0 | 4.8 | 0.00 | 0.00 | 0.00 | 59 | 1001.2 |
| 20260505020052 | 20 | 159 | 0.0 | 4.8 | 0.00 | 0.00 | 0.00 | 57 | 1000.9 |
| 20260505014605 | 20 | 155 | 0.0 | 6.4 | 0.00 | 0.00 | 0.00 | 57 | 1000.5 |
| 20260505013052 | 20 | 156 | 0.0 | 4.8 | 0.00 | 0.00 | 0.00 | 56 | 1000.4 |
| 20260505011551 | 20 | 156 | 0.0 | 4.8 | 0.00 | 0.00 | 0.00 | 55 | 1000.3 |
| 20260505010050 | 21 | 168 | 0.0 | 6.4 | 0.00 | 0.00 | 0.00 | 54 | 1000.3 |
| 20260505004549 | 21 | 158 | 0.0 | 0.0 | 0.00 | 0.00 | 0.00 | 53 | 1000.3 |
| 20260505003048 | 21 | 172 | 3.2 | 16.1 | 0.00 | 0.00 | 0.00 | 52 | 1000.4 |
| 20260505001602 | 21 | 160 | 0.0 | 0.0 | 0.00 | 0.00 | 0.00 | 53 | 1000.4 |
| 20260505000103 | 22 | 189 | 0.0 | 12.9 | 0.00 | 0.00 | 0.00 | 52 | 1000.6 |
| 20260504234603 | 22 | 165 | 0.0 | 14.5 | 0.00 | 0.00 | 0.00 | 53 | 1000.8 |
| 20260504233050 | 22 | 172 | 0.0 | 8.0 | 0.00 | 0.00 | 0.00 | 52 | 1001.1 |
| 20260504231541 | 22 | 154 | 3.2 | 14.5 | 0.00 | 0.00 | 0.00 | 50 | 1001.2 |
| 20260504230039 | 22 | 181 | 3.2 | 17.7 | 0.00 | 0.00 | 0.00 | 48 | 1001.5 |
| 20260504224546 | 23 | 243 | 0.0 | 16.1 | 0.00 | 0.00 | 0.00 | 46 | 1001.6 |
| 20260504223043 | 23 | 156 | 6.4 | 29.0 | 0.00 | 0.00 | 0.00 | 44 | 1001.7 |
| 20260504221538 | 23 | 81 | 3.2 | 22.5 | 0.00 | 0.00 | 0.00 | 42 | 1001.7 |
| 20260504220037 | 23 | 166 | 1.6 | 19.3 | 0.00 | 0.00 | 0.00 | 45 | 1001.8 |
| 20260504214534 | 23 | 166 | 4.8 | 19.3 | 0.00 | 0.00 | 0.00 | 49 | 1001.7 |
| 20260504213053 | 23 | 177 | 1.6 | 6.4 | 0.00 | 0.00 | 0.00 | 54 | 1001.5 |
| 20260504211529 | 23 | 174 | 0.0 | 1.6 | 0.00 | 0.00 | 0.00 | 51 | 1002.2 |
| 20260504210028 | 23 | 195 | 0.0 | 1.6 | 0.00 | 0.00 | 0.00 | 48 | 1002.4 |
| 20260504204526 | 23 | 232 | 0.0 | 12.9 | 0.00 | 0.00 | 0.00 | 47 | 1002.8 |
| 20260504203024 | 24 | 151 | 0.0 | 8.0 | 0.00 | 0.00 | 0.00 | 47 | 1002.9 |
| 20260504201526 | 23 | 183 | 1.6 | 12.9 | 0.00 | 0.00 | 0.00 | 52 | 1003.0 |
| 20260504200018 | 23 | 172 | 0.0 | 12.9 | 0.00 | 0.00 | 0.00 | 51 | 1003.4 |
| 20260504194518 | 22 | 137 | 1.6 | 8.0 | 0.00 | 0.00 | 0.00 | 55 | 1003.5 |
| 20260504193014 | 22 | 165 | 0.0 | 12.9 | 0.00 | 0.00 | 0.00 | 54 | 1003.6 |
| 20260504191510 | 22 | 155 | 0.0 | 11.3 | 0.00 | 0.00 | 0.00 | 59 | 1003.8 |
| 20260504190005 | 21 | 262 | 0.0 | 0.0 | 0.00 | 0.00 | 0.00 | 63 | 1004.1 |
| 20260504184504 | 20 | 181 | 0.0 | 0.0 | 0.00 | 0.00 | 0.00 | 63 | 1004.2 |
| 20260504183001 | 19 | 226 | 0.0 | 1.6 | 0.00 | 0.00 | 0.00 | 63 | 1004.5 |
| 20260504181605 | 19 | 152 | 0.0 | 0.0 | 0.00 | 0.00 | 0.00 | 64 | 1004.5 |
| 20260504180059 | 19 | 158 | 0.0 | 24.1 | 0.00 | 0.00 | 0.00 | 62 | 1004.3 |
| 20260504174612 | 19 | 172 | 0.0 | 11.3 | 0.00 | 0.00 | 0.00 | 62 | 1004.1 |
| 20260504173100 | 19 | 288 | 1.6 | 25.7 | 0.00 | 0.00 | 0.00 | 61 | 1004.1 |
| 20260504171558 | 20 | 160 | 1.6 | 22.5 | 0.00 | 0.00 | 0.00 | 60 | 1003.9 |
| 20260504110118 | 12 | 132 | 0.0 | 0.0 | 0.00 | 0.00 | 0.00 | 70 | 1005.3 |
| 20260504090111 | 11 | 160 | 0.0 | 0.0 | 0.00 | 0.00 | 0.00 | 68 | 1005.9 |
| 20260504081542 | 11 | 166 | 0.0 | 0.0 | 0.00 | 0.00 | 0.00 | 68 | 1006.1 |